Hourly Data Report for May 13, 2003

TORONTO CITY
ONTARIO

43°40'00.000" N
79°24'00.000" W
112.50 m
6158355
71508
XTO

Download Data

Hourly Data (May 2003)
Hourly Data Report for May 13, 2003
TIME
LST
Temp Definition
°C
Dew Point Definition
°C
Rel Hum Definition
%
Precip. Amount Definition
mm

Wind Dir Definition
10's deg

Wind Spd Definition
km/h
Visibility Definition
km
Stn Press Definition
kPa
Hmdx Definition


Wind Chill Definition


Weather Definition


00:00 7.7 5.9 88   LegendMM LegendMM LegendMM 98.78     LegendNANA
01:00 7.8 5.4 85   LegendMM LegendMM LegendMM 98.76     LegendNANA
02:00 7.3 4.6 83   LegendMM LegendMM LegendMM 98.77     LegendNANA
03:00 7.1 4.8 85   LegendMM LegendMM LegendMM 98.78     LegendNANA
04:00 6.7 4.5 86   LegendMM LegendMM LegendMM 98.85     LegendNANA
05:00 6.8 4.1 83   LegendMM LegendMM LegendMM 98.90     LegendNANA
06:00 7.0 4.3 83   LegendMM LegendMM LegendMM 98.96     LegendNANA
07:00 7.7 4.8 82   LegendMM LegendMM LegendMM 99.02     LegendNANA
08:00 8.4 5.0 79   LegendMM LegendMM LegendMM 99.10     LegendNANA
09:00 8.6 5.5 81   LegendMM LegendMM LegendMM 99.14     LegendNANA
10:00 9.2 5.8 79   LegendMM LegendMM LegendMM 99.18     LegendNANA
11:00 10.6 6.6 76   LegendMM LegendMM LegendMM 99.21     LegendNANA
12:00 11.1 5.9 70   LegendMM LegendMM LegendMM 99.24     LegendNANA
13:00 11.4 6.1 70   LegendMM LegendMM LegendMM 99.29     LegendNANA
14:00 11.3 6.0 70   LegendMM LegendMM LegendMM 99.35     LegendNANA
15:00 11.9 6.2 68   LegendMM LegendMM LegendMM 99.36     LegendNANA
16:00 11.4 5.9 69   LegendMM LegendMM LegendMM 99.43     LegendNANA
17:00 11.5 6.0 69   LegendMM LegendMM LegendMM 99.47     LegendNANA
18:00 11.5 6.2 70   LegendMM LegendMM LegendMM 99.52     LegendNANA
19:00 11.4 6.3 71   LegendMM LegendMM LegendMM 99.57     LegendNANA
20:00 10.8 6.8 76   LegendMM LegendMM LegendMM 99.61     LegendNANA
21:00 10.7 6.8 77   LegendMM LegendMM LegendMM 99.66     LegendNANA
22:00 10.3 6.8 79   LegendMM LegendMM LegendMM 99.70     LegendNANA
23:00 10.2 6.9 80   LegendMM LegendMM LegendMM 99.73     LegendNANA

Notes on Data Quality.

Legend

  • E = Estimated
  • M = Missing
  • NA = Not Available*
  • [empty] = Indicates an unobserved value
Date modified: